Regional Weather Roundup
Issued by NWS

Home | Current Version | Previous Version | Text Only | Print | Product List | Glossary On
Versions: 1 2 3 4 5 6 7 8 9 10 11 12 13 14 15 16 17 18 19 20 21 22 23 24 25 26 27 28 29 30 31 32 33 34 35 36 37 38 39 40 41 42 43 44 45 46 47 48 49 50
000
ASUS43 KDTX 202210
RWRMI
MICHIGAN HOURLY REGIONAL WEATHER ROUNDUP
NATIONAL WEATHER SERVICE DETROIT/PONTIAC MI
600 PM EDT SUN APR 20 2014

NOTE: "FAIR" INDICATES FEW OR NO CLOUDS BELOW 12,000 FEET WITH NO
SIGNIFICANT WEATHER AND/OR OBSTRUCTION TO VISIBILITY.

MIZ047>049-052>055-059>063-066>070-074>076-081>083-202300-
SOUTHEAST LOWER MICHIGAN

CITY           SKY/WX    TMP DP  RH WIND       PRES   REMARKS
ADRIAN         SUNNY     72  27  18 SW13      30.15F
ALMA           SUNNY     71  31  22 SW6       30.12F
ANN ARBOR      SUNNY     72  24  16 S12       30.15F
BAD AXE        MOSUNNY   71  29  21 SW10G17   30.13F
DETROIT CITY   MOSUNNY   73  28  18 SW16G23   30.15F
DETROIT        PTSUNNY   71  35  26 S9        30.16F
FLINT          SUNNY     73  27  18 S10       30.13F
GROSSE ILE     SUNNY     63  36  36 S3        30.16S
HILLSDALE      SUNNY     72  24  17 S7        30.15F
HOWELL         SUNNY     71  20  14 S9        30.14F

CITY           SKY/WX    TMP DP  RH WIND       PRES   REMARKS
JACKSON        SUNNY     72  23  16 S13       30.14F
LAMBERTVILLE   SUNNY     68  37  32 SE8       30.16F
LANSING        SUNNY     72  27  18 SW13      30.13F
LAPEER         NOT AVBL
MASON          SUNNY     72  27  19 S5        30.13F
MONROE         SUNNY     64  36  34 E6        30.15F
MT. CLEMENS    PTSUNNY   66  35  31 SE8       30.15F
PONTIAC        PTSUNNY   71  23  16 SW8       30.14F
PORT HOPE        N/A     55  38  52 NW6       30.13F
PORT HURON     MOSUNNY   68  36  30 S9        30.16F
TRI CITIES     SUNNY     73  29  19 SW8       30.12F
YPSILANTI      SUNNY     75  24  15 SW12G21   30.15F
$$
MIZ043>046-050>051-056>058-064>065-071>073-077>080-202300-
SOUTHWEST LOWER MICHIGAN

CITY           SKY/WX    TMP DP  RH WIND       PRES   REMARKS
BATTLE CREEK   SUNNY     72  30  21 SW7       30.14F
BENTON HARBOR  PTSUNNY   71  37  28 W8        30.12F
BIG RAPIDS     MOSUNNY   70  36  29 S8G22     30.09F
COLDWATER      SUNNY     70  26  18 SW8       30.13F
HOLLAND        MOSUNNY   73  36  25 SW12      30.12F
GRAND RAPIDS   MOSUNNY   73  31  21 S5        30.12F
KALAMAZOO      SUNNY     72  27  18 S9        30.13F
MARSHALL       SUNNY     72  28  19 CALM      30.13F
MUSKEGON       MOSUNNY   69  33  26 S16       30.11F
$$
MIZ016>042-202300-
NORTHERN LOWER MICHIGAN

CITY           SKY/WX    TMP DP  RH WIND       PRES   REMARKS
ALPENA         LGT RAIN  45  36  70 SE7       30.10F
BEAVER ISLAND  CLOUDY    41  33  73 SW13      30.08S
BELLAIRE       CLOUDY    60  42  51 SE3       30.07S
CADILLAC       PTSUNNY   67  40  36 SW8       30.09S
CHARLEVOIX     CLOUDY    54  38  54 CALM      30.10F
FRANKFORT      CLOUDY    53  34  48 SW9       30.09F
GAYLORD        CLOUDY    59  41  51 S7        30.08F
GRAYLING       CLOUDY    68  33  27 W6        30.09F
HARBOR SPRINGS CLOUDY    42  38  83 CALM      30.07F
HOUGHTON LAKE  PTSUNNY   70  33  25 SW7       30.09F
MANISTEE       CLOUDY    66  34  30 SW13G21   30.09F
OSCODA         CLOUDY    65  27  23 S7        30.11F
PELLSTON       CLOUDY    55  45  68 W5        30.08F
TRAVERSE CITY  LGT RAIN  67  37  33 W5        30.06F
$$
MIZ007>008-015-202300-
EASTERN UPPER MICHIGAN

CITY           SKY/WX    TMP DP  RH WIND       PRES   REMARKS
KINROSS        CLOUDY    43  41  93 CALM      30.09F
MACKINAC ISLAN CLOUDY    40  40  97 NE3       30.09S FOG
NEWBERRY       CLOUDY    38  37  97 S13       30.04F FOG
S. S. MARIE    LGT RAIN  38  36  92 E7        30.08F FOG
$$
MIZ004>006-011>014-085-202300-
CENTRAL UPPER MICHIGAN

CITY           SKY/WX    TMP DP  RH WIND       PRES   REMARKS
MANISTIQUE     CLOUDY    37  34  89 S6        30.05F
ESCANABA       CLOUDY    41  36  81 S7        30.04F
MENOMINEE      CLOUDY    52  46  82 SW8       30.04S
SAWYER-GWINN   SUNNY     61  48  63 S12       29.99F
$$
MIZ001>003-009>011-084-202300-
WESTERN UPPER MICHIGAN

CITY           SKY/WX    TMP DP  RH WIND       PRES   REMARKS
IRON MOUNTAIN  CLOUDY    59  49  69 S8        29.99S
HOUGHTON       SUNNY     49  34  56 NW14      29.99S
COPPER HARBOR    N/A     38  32  79 N3        30.00F
IRONWOOD       SUNNY     61  36  39 NW9       29.96F
$$

ABBREVIATIONS USED IN REMARKS
   TC - TEMPERATURE IN CELSIUS
  WCI - WIND CHILL INDEX
   HX - HEAT INDEX
  VSB - VISIBILITY




USA.gov is the U.S. government's official web portal to all federal, state and local government web resources and services.